Regional Weather Roundup
Issued by NWS

Home | Current Version | Previous Version | Text Only | Print | Product List | Glossary Off
Versions: 1 2 3 4 5 6 7 8 9 10 11 12 13 14 15 16 17 18 19 20 21 22 23 24 25 26 27 28 29 30 31 32 33 34 35 36 37 38 39 40 41 42 43 44 45 46 47 48 49 50

263
ASUS45 KBOU 211210
RWRCO

WEATHER ROUNDUP FOR COLORADO
NATIONAL WEATHER SERVICE PUEBLO CO
600 AM MDT SAT APR 21 2018

NOTE: "FAIR" INDICATES FEW OR NO CLOUDS BELOW 12000 FEET WITH NO
SIGNIFICANT WEATHER AND/OR OBSTRUCTIONS TO VISIBILITY.

COZ001>005-013-030-031-211300-
...NORTHWEST COLORADO...

CITY           SKY/WX    TMP DP  RH WIND       PRES   REMARKS
CRAIG          MOCLDY    36  31  82 CALM      30.13R
HAYDEN         CLOUDY    33  32  96 CALM      30.14R
MEEKER         CLOUDY    36  32  85 CALM      30.13R
RABBIT EARS PA NOT AVBL
STEAMBOAT SPGS CLOUDY    32  32 100 CALM      30.12R
WALDEN         MOCLDY    27  23  86 NW9       30.11S WCI  17
$$

COZ006>008-011-211300-
...WEST CENTRAL VALLEYS...

CITY           SKY/WX    TMP DP  RH WIND       PRES   REMARKS
GRAND JUNCTION CLOUDY    41  40  96 N7        30.12R
MONTROSE       CLOUDY    37  35  92 S6        30.13S
EAGLE          CLOUDY    33  32  96 W5        30.13S WCI  29
RIFLE          CLOUDY    36  36 100 S3        30.13R
DELTA          NOT AVBL
NUCLA          CLOUDY    36  34  93 SE3       30.16S
$$

COZ017>023-064>068-211300-
...SOUTHWEST COLORADO...

CITY           SKY/WX    TMP DP  RH WIND       PRES   REMARKS
DURANGO        PTCLDY    29  21  72 NE7       30.05S WCI  22
CORTEZ         CLOUDY    44  35  70 NW10      30.10R
PAGOSA SPRINGS FAIR      29  22  73 CALM      30.07S
TELLURIDE      SNOW      29  29 100 W8G17     30.12S VSB 1/2 WCI  21
WOLF CREEK PAS MOCLDY    19  16  86 N6        30.13R WCI  11
$$

COZ009-010-012-014-032>034-037-058>063-211300-
...CENTRAL COLORADO...

CITY           SKY/WX    TMP DP  RH WIND       PRES   REMARKS
ASPEN          CLOUDY    30  29  96 SW6       30.09F WCI  24
BUENA VISTA    CLOUDY    30  27  88 E5        30.07R WCI  25
COPPER MTN     NOT AVBL
BERTHOUD PASS  CLOUDY    16   5  62 N9G18     30.08S WCI   4
COTTONWOOD PAS CLOUDY    32  25  74 W8        30.07R WCI  25
GUNNISON       CLOUDY    31  30  96 NE7       30.10R WCI  24
KREMMLING      CLOUDY    37  32  81 NW8       30.11R
LEADVILLE      CLOUDY    23  21  92 NW5       30.07S WCI  17
MONARCH PASS   CLOUDY    18  16  93 NW3       30.19R
SALIDA         CLOUDY    32  28  84 W5        30.15R WCI  27
SUNLIGHT       SNOW     N/A N/A N/A NW5       30.17R VSB<1/4
WILKERSON PASS CLOUDY   N/A N/A N/A NE9       30.09R FOG
$$

COZ069>075-211300-
...SAN LUIS VALLEY/SANGRE DE CRISTO MOUNTAINS...

CITY           SKY/WX    TMP DP  RH WIND       PRES   REMARKS
ALAMOSA        CLOUDY    32  28  85 N3        30.05R
DEL NORTE      CLOUDY    29  27  95 E5        30.07R WCI  23
LA VETA PASS   LGT SNOW  23  21  93 W3        30.17R VSB 3/4
SAGUACHE       NOT AVBL
$$

COZ035-036-038>040-211300-
...NORTHERN COLORADO FRONT RANGE...

CITY           SKY/WX    TMP DP  RH WIND       PRES   REMARKS
DENVER INTL AP LGT SNOW  32  32 100 N10       30.12R VSB 3/4 WCI  24
DMNS CITY PARK NOT AVBL
AURORA         LGT SNOW  31  31 100 N8        30.12R FOG     WCI  24
FRONT RANGE AP LGT SNOW  34  33  97 N5        30.13R WCI  30
ERIE MUNI ARPT LGT SNOW  33  33 100 N8        30.20R WCI  26
BOULDER MUN AP CLOUDY    34  34 100 N8        30.14R WCI  27
CENTENNIAL     LGT SNOW  31  31 100 N9        30.11R FOG     WCI  23
BROOMFIELD     LGT SNOW  32  32 100 N7        30.14R VSB 1   WCI  26
LOVELAND       LGT RAIN  33  32  96 N7        30.17R WCI  27
LONGMONT       FLURRIES  36  34  92 N8        30.17R
$$

COZ041-046-047-076>085-087-088-211300-
...PIKES PEAK/PALMER DIVIDE AND SOUTHERN FOOTHILLS...

CITY           SKY/WX    TMP DP  RH WIND       PRES   REMARKS
COLO. SPRINGS  CLOUDY    33  29  85 N16       30.09R WCI  23
A. F. ACADEMY  MOCLDY    31  31  99 N14       30.08R WCI  21
SCHRIEVER AFB  NOT AVBL
CHEYENNE MTN   NOT AVBL
ELLICOTT         N/A    N/A N/A N/A NE5       30.07R
FALCON         CLOUDY    30  30 100 NW8       30.09R WCI  22
FORT CARSON    CLOUDY    34  30  86 N10       30.09R WCI  26
LIMON          CLOUDY    31  31 100 E6        30.10R FOG     WCI  25
MONUMENT HILL  MIX PCPN  28  28 100 NW16      30.10R WCI  17
CANON CITY     CLOUDY    36  34  93 W8        30.09R
WALSENBURG     CLOUDY    36  34  93 N5        30.08R
TRINIDAD       CLOUDY    34  33  96 W3        30.07R
$$

COZ042>045-048>051-090-091-211300-
...NORTHEAST COLORADO...

CITY           SKY/WX    TMP DP  RH WIND       PRES   REMARKS
GREELEY ARPT   LGT SNOW  34  32  93 N6        30.17R FOG     WCI  29
AKRON          LGT SNOW  32  32 100 E9        30.13R FOG     WCI  24
BURLINGTON     CLOUDY    36  35  96 E9        30.12S
WRAY           LGT SNOW  34  34 100 E5        30.17S WCI  30
YUMA           NOT AVBL
STERLING       NOT AVBL
HOLYOKE        RAIN      37  36  93 E13       30.18S
FORT MORGAN    LGT SNOW  32  32  99 E8        30.15R WCI  25
$$

COZ086-089-092>099-211300-
...SOUTHEAST COLORADO...

CITY           SKY/WX    TMP DP  RH WIND       PRES   REMARKS
PUEBLO         LGT RAIN  41  37  86 E6        30.08R
LA JUNTA       CLOUDY    41  40  96 E7        30.06R
LAMAR          CLOUDY    41  39  93 E8        30.06S FOG
SPRINGFIELD      N/A     38  38 100 E7        30.05R
$$





USA.gov is the U.S. government's official web portal to all federal, state and local government web resources and services.